Location: ??????
(38.0677°N, 22.9870°E)
Time: 13:19:40
(UTC+00:00)

USA 234 - Pass Details

Date: 23 May 2024
Orbit: 1100 x 1107 km, 123.0° (Epoch: 05 June)

Event Time Altitude Azimuth Distance (km) Brightness Sun altitude
Exits shadow 00:56:32 37° 226° (SW) 1,644 3.6 -21.3°
Maximum altitude 00:56:53 37° 233° (SW) 1,638 3.7 -21.3°
Drops below altitude 10° 01:02:52 10° 299° (WNW) 2,961 5.4 -20.6°
Sets 01:05:34 0° 308° (NW) 3,921 6.1 -20.2°
